TimeCST,TemperatureF,Dew PointF,Humidity,Sea Level PressureIn,VisibilityMPH,Wind Direction,Wind SpeedMPH,Gust SpeedMPH,PrecipitationIn,Events,Conditions,WindDirDegrees,DateUTC
12:52 AM,25.0,19.0,78,30.20,10.0,North,10.4,-,N/A,,Overcast,350,2013-03-02 06:52:00
1:52 AM,24.1,19.0,81,30.20,10.0,North,12.7,18.4,N/A,,Overcast,350,2013-03-02 07:52:00
2:52 AM,24.1,19.0,81,30.19,7.0,North,9.2,-,0.00,Snow,Light Snow,350,2013-03-02 08:52:00
3:52 AM,24.1,19.0,81,30.19,7.0,North,10.4,-,0.00,Snow,Light Snow,360,2013-03-02 09:52:00
4:17 AM,23.0,19.4,86,30.16,8.0,North,9.2,-,0.00,,Overcast,360,2013-03-02 10:17:00
4:52 AM,23.0,18.0,81,30.19,10.0,NNW,6.9,-,0.00,,Overcast,340,2013-03-02 10:52:00
5:52 AM,21.9,17.1,82,30.21,10.0,NNW,8.1,-,N/A,,Overcast,330,2013-03-02 11:52:00
6:20 AM,21.2,17.6,86,30.18,10.0,NNW,5.8,-,N/A,,Overcast,340,2013-03-02 12:20:00
6:52 AM,21.9,16.0,78,30.22,10.0,NW,15.0,-,N/A,,Overcast,320,2013-03-02 12:52:00
7:52 AM,21.9,16.0,78,30.22,10.0,NNW,11.5,-,N/A,,Overcast,330,2013-03-02 13:52:00
8:52 AM,23.0,16.0,74,30.23,10.0,NW,15.0,-,N/A,,Overcast,320,2013-03-02 14:52:00
9:52 AM,25.0,16.0,69,30.22,10.0,NW,13.8,-,N/A,,Overcast,320,2013-03-02 15:52:00
10:52 AM,26.1,16.0,66,30.22,10.0,NNW,12.7,-,N/A,,Overcast,330,2013-03-02 16:52:00
11:52 AM,28.9,16.0,58,30.21,10.0,NNW,8.1,-,0.01,,Overcast,330,2013-03-02 17:52:00
12:52 PM,28.9,16.0,58,30.19,10.0,NNW,13.8,18.4,N/A,,Partly Cloudy,330,2013-03-02 18:52:00
1:52 PM,28.9,16.0,58,30.19,10.0,NW,12.7,-,N/A,,Mostly Cloudy,320,2013-03-02 19:52:00
2:52 PM,30.0,15.1,54,30.18,10.0,NW,10.4,20.7,N/A,,Mostly Cloudy,310,2013-03-02 20:52:00
3:52 PM,28.9,16.0,58,30.19,10.0,NNW,11.5,-,N/A,,Mostly Cloudy,330,2013-03-02 21:52:00
4:52 PM,27.0,15.1,61,30.20,10.0,NW,13.8,-,N/A,,Mostly Cloudy,310,2013-03-02 22:52:00
5:52 PM,25.0,14.0,63,30.21,10.0,NW,10.4,-,N/A,,Scattered Clouds,310,2013-03-02 23:52:00
6:52 PM,23.0,14.0,68,30.22,10.0,NW,10.4,-,N/A,,Mostly Cloudy,320,2013-03-03 00:52:00
7:52 PM,21.9,12.9,68,30.22,10.0,NNW,8.1,-,N/A,,Overcast,340,2013-03-03 01:52:00
8:52 PM,19.9,12.0,71,30.22,10.0,NW,5.8,-,N/A,,Partly Cloudy,320,2013-03-03 02:52:00
9:52 PM,19.0,12.0,74,30.22,10.0,NW,4.6,-,N/A,,Clear,310,2013-03-03 03:52:00
10:52 PM,18.0,10.9,74,30.21,10.0,NW,6.9,-,N/A,,Clear,310,2013-03-03 04:52:00